THORAD DELTA 1 DEB, 13527

Orbit data source: Space-Track

THORAD DELTA 1 DEB, 13527 is space debris in SSO originally from a launch on Fri, 15 Nov 1974 UTC launched from the Air Force Western Test Range (AFWTR). Debris objects in space refer to the collection of defunct objects orbiting the Earth. Examples of debris include non-operational satellites, rocket bodies, and fragments generated from explosions, collisions, or faulty payload assembly.

Loading next visibility...
Identifier
13527, 1974-089EN
Orbit
SSO
Country
Flag of USUS
Related business
Manufacturer
Unknown
Mission
Spacecraft
Bus & Motor
Unknown
Mass
Unknown
Launch date (UTC)
1974-11-15 (51 years ago)
Launch vehicle
Unknown
Launch site
Air Force Western Test Range (AFWTR)
Object type
Payload
Rocket body
Debris
Shape & HBR
Unknown shape, 0.1 m
Radar Cross Section
Small (<0.1 m²)

Expand to show TLE details & history
Last TLE update: 14 hours ago

TLE from 14 hours ago
0 THORAD DELTA 1 DEB
1 13527U 74089EN  26104.46600057  .00000853  00000-0  53209-2 0  9994
2 13527 102.9221  95.9607 0328390 358.0611 153.1504 12.43851901 62902
Epoch: 2026-04-14T11:11Z
TLE epoch observation values (Epoch: 2026-04-14T11:11:02.449Z)
Latitude
26.44135°
Longitude
-87.92083°
Altitude
1,725.414 km
Speed
6.913 km/s
True Right ascension
18h 49m 55s
True Declination
26° 19' 15"
Sunlit
Object was in daylight at epoch
Visualization orbit readout
Latitude
Unknown
Longitude
Unknown
Altitude
Unknown
Speed
Unknown
Apparent Right ascension
Unknown
Apparent Declination
Unknown
Sunlit
N/A
Visualization observer readout
Local Sidereal Time
08:09:43
Azimuth
Unknown
Elevation
Unknown
Doppler factor
Unknown
Orbital elements
Apogee altitude
1,746.254 km
Perigee altitude
1,229.625 km
Semi-major axis
7,866.076 km
Eccentricity
0.03284
Inclination
102.9221°
RAAN
95.9607°
Arg. of periapsis
358.0611°
True anomaly
154.78964°
Mean anomaly
153.1504°
Eccentric anomaly
153.97592°
Mean motion
3.11104 °/min
Orbital period
115.72 mins
BSTAR
0.0053209
Loading maneuver chart data...
Computing Atmospheric mass density...

Documentation

Showing up to 5 results
|